Athens, GA

7:09 PM EDT on May 26, 2017 (GMT -0400)
Athens / Epps

Weather History for KAHN - January, 2014

Change the Weather History Date:

Saturday, January 11, 2014

  Actual Average Record
Temperature  
Mean Temperature 53 °F 43 °F  
Max Temperature 61 °F 53 °F 79 °F (1949)
Min Temperature 45 °F 33 °F 0 °F (1982)
Degree Days  
Heating Degree Days 12 22  
Month to date heating degree days 325 242  
Since 1 July heating degree days 1426 1332  
Growing Degree Days 3 (Base 50)    
Moisture  
Dew Point 51 °F    
Average Humidity 77    
Maximum Humidity 100    
Minimum Humidity 54    
Precipitation  
Precipitation 2.75 in 0.13 in 3.50 in (1891)
Month to date precipitation 4.30 1.35  
Year to date precipitation 4.30 1.35  
Snow  
Snow 0.00 in 0.00 in 0.00 in (2002)
Month to date snowfall 0.0 0.4  
Since 1 July snowfall 0.0 0.5  
Snow Depth 0.00 in    
Sea Level Pressure  
Sea Level Pressure 29.85 in    
Wind  
Wind Speed 7 mph (SSW)    
Max Wind Speed 21 mph    
Max Gust Speed 31 mph    
Visibility 3 miles    
Events Fog , Rain , Thunderstorm    
T = Trace of Precipitation, MM = Missing Value Source: NWS Daily Summary

Daily Weather History Graph

Daily Weather History Graph

Search for Another Location

Airport or City:

Trip Planner

Search our weather history database for the weather conditions in past years. The results will help you decide how hot, cold, wet, or windy it might be!

Date:

Astronomy

Jan. 11, 2014 Rise Set
Actual Time 7:39 AM EST 5:43 PM EST
Civil Twilight 7:11 AM EST 6:11 PM EST
Nautical Twilight 6:40 AM EST 6:41 PM EST
Astronomical Twilight 6:10 AM EST 7:12 PM EST
Moon 2:25 PM EST (1/11) 3:45 AM EST (1/11)
Length of Visible Light 10h 59m
Length of Day
10h 04m
Waxing Gibbous, 83% of the Moon is Illuminated
Jan 11
Waxing Gibbous
Jan 15
Full
Jan 24
Last Quarter
Jan 30
New
Feb 6
First Quarter

Hourly Weather History & Observations

Time (EST) Temp. Windchill Dew Point Humidity Pressure Visibility Wind Dir Wind Speed Gust Speed Precip Events Conditions
12:07 AM 46.4 °F - 44.6 °F 93% 30.04 in 2.0 mi Calm Calm - 0.00 in Rain Light Rain
12:14 AM 46.4 °F - 44.6 °F 93% 30.04 in 1.8 mi Calm Calm - 0.00 in   Overcast
12:36 AM 46.4 °F 45.2 °F 44.6 °F 93% 30.02 in 1.2 mi ENE 3.5 mph - 0.00 in   Overcast
12:51 AM 45.0 °F 42.6 °F 45.0 °F 100% 30.02 in 1.2 mi ENE 4.6 mph - 0.01 in   Overcast
1:25 AM 46.4 °F 45.2 °F 44.6 °F 93% 30.00 in 0.8 mi North 3.5 mph - N/A   Overcast
1:39 AM 44.6 °F 42.2 °F 44.6 °F 100% 29.99 in 0.5 mi ENE 4.6 mph - N/A Fog Fog
1:51 AM 45.0 °F 42.6 °F 45.0 °F 100% 29.99 in 0.5 mi East 4.6 mph - 0.00 in Fog , Rain Light Rain
2:33 AM 44.6 °F 42.2 °F 44.6 °F 100% 29.95 in 0.8 mi East 4.6 mph - 0.02 in Rain Light Rain
2:51 AM 45.0 °F 41.2 °F 45.0 °F 100% 29.94 in 0.5 mi East 6.9 mph - 0.03 in Fog , Rain Light Rain
3:08 AM 44.6 °F 43.1 °F 44.6 °F 100% 29.93 in 0.5 mi ESE 3.5 mph - 0.00 in Fog , Thunderstorm Fog
3:32 AM 44.6 °F 43.1 °F 44.6 °F 100% 29.94 in 0.5 mi ESE 3.5 mph - 0.19 in Fog , Rain , Thunderstorm Heavy Thunderstorms and Rain
3:37 AM 44.6 °F 40.2 °F 44.6 °F 100% 29.91 in 1.0 mi East 8.1 mph - 0.27 in Rain , Thunderstorm Heavy Thunderstorms and Rain
3:41 AM 44.6 °F - 44.6 °F 100% 29.93 in 2.0 mi Calm Calm - 0.29 in Rain , Thunderstorm Thunderstorms and Rain
3:51 AM 46.0 °F 44.8 °F 45.0 °F 96% 29.95 in 1.5 mi West 3.5 mph - 0.32 in Rain , Thunderstorm Heavy Thunderstorms and Rain
3:55 AM 46.4 °F - 44.6 °F 93% 29.94 in 1.0 mi Calm Calm - 0.08 in Rain , Thunderstorm Heavy Thunderstorms and Rain
3:59 AM 46.4 °F - 44.6 °F 93% 29.92 in 0.5 mi Calm Calm - 0.15 in Fog , Rain , Thunderstorm Heavy Thunderstorms and Rain
4:03 AM 46.4 °F 43.5 °F 44.6 °F 93% 29.91 in 1.0 mi East 5.8 mph - 0.24 in Rain , Thunderstorm Heavy Thunderstorms and Rain
4:08 AM 46.4 °F 44.3 °F 46.4 °F 100% 29.91 in 2.0 mi ESE 4.6 mph - 0.26 in Rain , Thunderstorm Heavy Thunderstorms and Rain
4:15 AM 46.4 °F 43.5 °F 46.4 °F 100% 29.89 in 1.2 mi ESE 5.8 mph - 0.31 in Rain , Thunderstorm Heavy Thunderstorms and Rain
4:36 AM 50.0 °F - 48.2 °F 94% 29.89 in 1.2 mi Calm Calm - 0.54 in Rain , Thunderstorm Heavy Rain
4:47 AM 50.0 °F - 50.0 °F 100% 29.90 in 1.5 mi Variable 3.5 mph - 0.60 in Rain , Thunderstorm Thunderstorms and Rain
4:51 AM 50.0 °F - 50.0 °F 100% 29.90 in 1.2 mi South 5.8 mph - 0.63 in Rain , Thunderstorm Thunderstorms and Rain
5:00 AM 53.6 °F - 51.8 °F 94% 29.88 in 2.0 mi South 6.9 mph - 0.02 in Rain , Thunderstorm Light Thunderstorms and Rain
5:06 AM 53.6 °F - 53.6 °F 100% 29.89 in 3.0 mi South 8.1 mph - 0.02 in Rain Light Rain
5:20 AM 53.6 °F - 51.8 °F 94% 29.88 in 2.5 mi South 6.9 mph - 0.02 in   Overcast
5:35 AM 53.6 °F - 51.8 °F 94% 29.89 in 2.5 mi SSW 6.9 mph - 0.03 in   Overcast
5:49 AM 51.8 °F - 51.8 °F 100% 29.88 in 1.2 mi WSW 4.6 mph - 0.03 in Rain Rain
5:51 AM 52.0 °F - 52.0 °F 100% 29.89 in 1.2 mi WSW 3.5 mph - 0.07 in Rain Rain
5:57 AM 51.8 °F - 51.8 °F 100% 29.88 in 2.0 mi South 4.6 mph - 0.00 in Rain Light Rain
6:13 AM 51.8 °F - 51.8 °F 100% 29.87 in 1.2 mi South 3.5 mph - 0.00 in   Overcast
6:21 AM 51.8 °F - 51.8 °F 100% 29.86 in 0.5 mi South 4.6 mph - 0.00 in Fog Fog
6:51 AM 52.0 °F - 51.1 °F 97% 29.84 in 0.5 mi South 6.9 mph - 0.00 in Fog , Rain Light Rain
7:51 AM 54.0 °F - 53.1 °F 97% 29.81 in 0.2 mi South 8.1 mph - 0.01 in Fog Fog
8:33 AM 57.2 °F - 55.4 °F 94% 29.78 in 1.0 mi South 9.2 mph 18.4 mph N/A   Mist
8:37 AM 57.2 °F - 57.2 °F 100% 29.78 in 2.0 mi South 10.4 mph - N/A   Overcast
8:51 AM 57.9 °F - 57.9 °F 100% 29.80 in 7.0 mi South 11.5 mph 18.4 mph N/A   Overcast
9:04 AM 59.0 °F - 57.2 °F 94% 29.79 in 8.0 mi South 11.5 mph 20.7 mph N/A   Overcast
9:16 AM 60.8 °F - 59.0 °F 94% 29.80 in 8.0 mi SSW 10.4 mph 20.7 mph N/A   Overcast
9:40 AM 57.2 °F - 55.4 °F 94% 29.83 in 1.2 mi WNW 11.5 mph 31.1 mph 0.04 in Rain Light Rain
9:48 AM 57.2 °F - 55.4 °F 94% 29.83 in 1.0 mi West 15.0 mph 20.7 mph 0.16 in Rain Light Rain
9:51 AM 57.0 °F - 55.0 °F 93% 29.86 in 1.8 mi West 16.1 mph 21.9 mph 0.17 in Rain Rain
9:53 AM 57.2 °F - 55.4 °F 94% 29.84 in 0.8 mi WNW 16.1 mph 23.0 mph 0.00 in Rain Heavy Rain
10:00 AM 57.2 °F - 55.4 °F 94% 29.85 in 0.2 mi West 11.5 mph 23.0 mph 0.33 in Fog , Rain Heavy Rain
10:27 AM 57.2 °F - 55.4 °F 94% 29.82 in 0.8 mi Variable 6.9 mph - 0.89 in Rain Heavy Rain
10:37 AM 57.2 °F - 55.4 °F 94% 29.83 in 1.2 mi SW 5.8 mph - 0.97 in Rain Heavy Rain
10:43 AM 57.2 °F - 55.4 °F 94% 29.84 in 1.5 mi SSW 8.1 mph - 0.99 in Rain Heavy Rain
10:51 AM 57.0 °F - 57.0 °F 100% 29.84 in 1.2 mi SSW 6.9 mph - 1.03 in Rain Heavy Rain
10:59 AM 57.2 °F - 55.4 °F 94% 29.81 in 2.0 mi South 5.8 mph - 0.03 in Rain Rain
11:32 AM 57.2 °F - 55.4 °F 94% 29.80 in 3.0 mi SW 4.6 mph - 0.10 in Rain Light Rain
11:41 AM 57.2 °F - 55.4 °F 94% 29.80 in 2.0 mi Variable 4.6 mph - 0.13 in Rain Rain
11:51 AM 57.0 °F - 55.9 °F 96% 29.78 in 1.8 mi Variable 3.5 mph - 0.17 in Rain Heavy Rain
12:22 PM 57.2 °F - 55.4 °F 94% 29.79 in 1.2 mi SW 5.8 mph - 0.16 in Rain Heavy Rain
12:32 PM 57.2 °F - 55.4 °F 94% 29.79 in 1.8 mi SSW 5.8 mph - 0.20 in Rain Rain
12:42 PM 57.2 °F - 55.4 °F 94% 29.79 in 1.5 mi SW 6.9 mph - 0.24 in Rain Heavy Rain
12:51 PM 57.0 °F - 55.9 °F 96% 29.75 in 1.8 mi South 5.8 mph - 0.29 in Rain Heavy Rain
12:58 PM 57.2 °F - 55.4 °F 94% 29.76 in 3.0 mi SSW 6.9 mph - 0.02 in Rain Light Rain
1:20 PM 57.2 °F - 55.4 °F 94% 29.76 in 10.0 mi SSW 5.8 mph - 0.02 in Rain Light Rain
1:51 PM 57.9 °F - 57.0 °F 97% 29.74 in 10.0 mi SW 6.9 mph - 0.02 in   Mostly Cloudy
1:58 PM 57.2 °F - 55.4 °F 94% 29.74 in 10.0 mi SW 6.9 mph - N/A   Scattered Clouds
2:51 PM 59.0 °F - 55.0 °F 87% 29.73 in 10.0 mi WSW 8.1 mph - N/A   Clear
3:51 PM 60.1 °F - 54.0 °F 80% 29.71 in 10.0 mi SW 6.9 mph - N/A   Clear
4:51 PM 60.1 °F - 53.1 °F 78% 29.70 in 10.0 mi WSW 5.8 mph - N/A   Clear
5:51 PM 57.0 °F - 52.0 °F 83% 29.71 in 10.0 mi SSW 4.6 mph - N/A   Partly Cloudy
6:51 PM 55.9 °F - 52.0 °F 87% 29.72 in 10.0 mi SSW 4.6 mph - N/A   Partly Cloudy
7:51 PM 55.0 °F - 48.9 °F 80% 29.77 in 10.0 mi West 8.1 mph - N/A   Overcast
8:51 PM 54.0 °F - 37.9 °F 55% 29.81 in 10.0 mi West 10.4 mph - N/A   Clear
9:51 PM 52.0 °F - 35.1 °F 53% 29.84 in 10.0 mi West 9.2 mph 16.1 mph N/A   Clear
10:51 PM 51.1 °F - 35.1 °F 54% 29.87 in 10.0 mi West 10.4 mph 18.4 mph N/A   Clear
11:51 PM 50.0 °F - 36.0 °F 59% 29.89 in 10.0 mi West 9.2 mph 16.1 mph N/A   Clear